When you browse on this site, cookies collect data to enhance your experience and personalize the content and advertising you see.
Visit our Privacy Policy to learn more. By continuing to use the site, you agree to this use of cookies and data.
  • In Denmark
  • List of Countries
  • For 7 days
  • Water Temperature
  • Satellite Maps
  • Weather Map
  • Weather Widgets
  • user-avatar
    Login

    Hourly Weather Basshi

    Today, 19 December, Wednesday

    Time Temperature Precipitation Wind Pressure Humidity
    00:00 -6°C° 0 mm 2 mps 681 mmHg 61%
    01:00 -6°C° 0 mm 2 mps 681 mmHg 61%
    02:00 -6°C° 0 mm 2 mps 681 mmHg 61%
    03:00 -6°C° 0 mm 2 mps 681 mmHg 65%
    04:00 -6°C° 0 mm 2 mps 681 mmHg 68%
    05:00 -7°C° 0 mm 2 mps 681 mmHg 69%
    06:00 -6°C° 0 mm 2 mps 681 mmHg 69%
    07:00 -6°C° 0 mm 2 mps 681 mmHg 69%
    08:00 -6°C° 0 mm 2 mps 681 mmHg 69%
    09:00 -5°C° 0 mm 2 mps 681 mmHg 68%
    10:00 -2°C° 0 mm 1 mps 681 mmHg 66%
    11:00 -1°C° 0 mm 1 mps 681 mmHg 64%
    12:00 -1°C° 0 mm 1 mps 682 mmHg 64%
    13:00 -1°C° 0 mm 1 mps 682 mmHg 64%
    14:00 -1°C° 0 mm 1 mps 682 mmHg 64%
    15:00 -2°C° 0 mm 1 mps 682 mmHg 64%
    16:00 -2°C° 0 mm 1 mps 682 mmHg 64%
    17:00 -3°C° 0 mm 1 mps 682 mmHg 64%
    18:00 -3°C° 0 mm 1 mps 682 mmHg 63%
    19:00 -3°C° 0 mm 1 mps 682 mmHg 61%
    20:00 -3°C° 0 mm 1 mps 682 mmHg 60%
    21:00 -3°C° 0 mm 1 mps 682 mmHg 60%
    22:00 -3°C° 0 mm 1 mps 683 mmHg 60%
    23:00 -3°C° 0 mm 1 mps 683 mmHg 60%

    Tomorrow, 20 December, Thursday

    Time Temperature Precipitation Wind Pressure Humidity
    00:00 -3°C° 0 mm 1 mps 683 mmHg 63%
    01:00 -3°C° 0 mm 1 mps 683 mmHg 65%
    02:00 -3°C° 0 mm 1 mps 683 mmHg 67%
    03:00 -3°C° 0.2 mm 1 mps 684 mmHg 71%
    04:00 -3°C° 0.2 mm 1 mps 684 mmHg 75%
    05:00 -3°C° 0.2 mm 1 mps 684 mmHg 79%
    06:00 -3°C° 0.3 mm 1 mps 685 mmHg 82%
    07:00 -3°C° 0.3 mm 1 mps 686 mmHg 84%
    08:00 -6°C° 0.3 mm 2 mps 686 mmHg 87%
    09:00 -5°C° 0.2 mm 2 mps 686 mmHg 86%
    10:00 -5°C° 0.2 mm 2 mps 687 mmHg 85%
    11:00 -5°C° 0.2 mm 3 mps 687 mmHg 83%
    12:00 -5°C° 0.1 mm 3 mps 687 mmHg 82%
    13:00 -5°C° 0.1 mm 4 mps 687 mmHg 80%
    14:00 -5°C° 0.1 mm 4 mps 687 mmHg 78%
    15:00 -7°C° 0 mm 4 mps 687 mmHg 78%
    16:00 -8°C° 0 mm 4 mps 687 mmHg 78%
    17:00 -8°C° 0 mm 3 mps 688 mmHg 77%
    18:00 -8°C° 0 mm 3 mps 688 mmHg 75%
    19:00 -9°C° 0 mm 3 mps 688 mmHg 73%
    20:00 -9°C° 0 mm 3 mps 688 mmHg 71%
    21:00 -9°C° 0 mm 3 mps 688 mmHg 72%
    22:00 -9°C° 0 mm 3 mps 688 mmHg 72%
    23:00 -9°C° 0 mm 3 mps 688 mmHg 72%

    Day after tomorrow, 21 December, Friday

    Time Temperature Precipitation Wind Pressure Humidity
    00:00 -10°C° 0 mm 3 mps 688 mmHg 72%
    01:00 -10°C° 0 mm 3 mps 688 mmHg 72%
    02:00 -10°C° 0 mm 3 mps 689 mmHg 71%
    03:00 -10°C° 0 mm 3 mps 689 mmHg 70%
    04:00 -10°C° 0 mm 3 mps 688 mmHg 69%
    05:00 -10°C° 0 mm 3 mps 688 mmHg 68%
    06:00 -9°C° 0 mm 2 mps 689 mmHg 67%
    07:00 -9°C° 0 mm 2 mps 689 mmHg 65%
    08:00 -9°C° 0 mm 2 mps 689 mmHg 64%
    09:00 -8°C° 0 mm 2 mps 689 mmHg 64%
    10:00 -7°C° 0 mm 2 mps 688 mmHg 64%
    11:00 -6°C° 0 mm 2 mps 688 mmHg 64%
    12:00 -7°C° 0 mm 3 mps 688 mmHg 67%
    13:00 -7°C° 0 mm 3 mps 687 mmHg 70%
    14:00 -7°C° 0 mm 3 mps 686 mmHg 73%
    15:00 -8°C° 0 mm 3 mps 686 mmHg 74%
    16:00 -8°C° 0 mm 3 mps 686 mmHg 75%
    17:00 -10°C° 0 mm 4 mps 686 mmHg 77%
    18:00 -10°C° 0 mm 4 mps 685 mmHg 74%
    19:00 -10°C° 0 mm 4 mps 685 mmHg 72%
    20:00 -10°C° 0 mm 4 mps 685 mmHg 70%
    21:00 -10°C° 0 mm 4 mps 684 mmHg 67%
    22:00 -11°C° 0 mm 5 mps 684 mmHg 63%
    23:00 -11°C° 0 mm 5 mps 683 mmHg 60%

    22 December, Saturday

    Time Temperature Precipitation Wind Pressure Humidity
    00:00 -11°C° 0 mm 5 mps 683 mmHg 58%
    01:00 -11°C° 0 mm 5 mps 682 mmHg 56%
    02:00 -11°C° 0 mm 5 mps 682 mmHg 54%
    03:00 -11°C° 0 mm 5 mps 681 mmHg 52%
    04:00 -11°C° 0 mm 5 mps 681 mmHg 50%
    05:00 -11°C° 0 mm 5 mps 680 mmHg 49%
    06:00 -10°C° 0 mm 4 mps 680 mmHg 47%
    07:00 -10°C° 0 mm 4 mps 680 mmHg 46%
    08:00 -9°C° 0 mm 4 mps 680 mmHg 45%
    09:00 -8°C° 0 mm 4 mps 680 mmHg 45%
    10:00 -7°C° 0 mm 4 mps 679 mmHg 45%
    11:00 -5°C° 0 mm 4 mps 679 mmHg 45%
    12:00 -5°C° 0 mm 4 mps 679 mmHg 45%
    13:00 -4°C° 0 mm 4 mps 679 mmHg 45%
    14:00 -4°C° 0 mm 3 mps 678 mmHg 44%
    15:00 -5°C° 0 mm 3 mps 678 mmHg 43%
    16:00 -6°C° 0 mm 3 mps 678 mmHg 42%
    17:00 -6°C° 0 mm 3 mps 678 mmHg 41%
    18:00 -6°C° 0 mm 3 mps 678 mmHg 41%
    19:00 -6°C° 0 mm 3 mps 679 mmHg 40%
    20:00 -6°C° 0 mm 3 mps 679 mmHg 39%
    21:00 -6°C° 0 mm 3 mps 679 mmHg 40%
    22:00 -4°C° 0 mm 2 mps 679 mmHg 41%
    23:00 -4°C° 0 mm 2 mps 679 mmHg 42%

    23 December, Sunday

    Time Temperature Precipitation Wind Pressure Humidity
    00:00 -4°C° 0 mm 2 mps 679 mmHg 43%
    01:00 -4°C° 0 mm 2 mps 679 mmHg 45%
    02:00 -4°C° 0 mm 2 mps 679 mmHg 47%
    03:00 -4°C° 0 mm 2 mps 679 mmHg 49%
    04:00 -4°C° 0 mm 2 mps 679 mmHg 50%
    05:00 -4°C° 0 mm 2 mps 679 mmHg 52%
    06:00 -4°C° 0.1 mm 2 mps 679 mmHg 55%
    07:00 -3°C° 0.1 mm 2 mps 680 mmHg 57%
    08:00 -3°C° 0.1 mm 2 mps 680 mmHg 60%
    09:00 -3°C° 0.1 mm 2 mps 680 mmHg 60%
    10:00 -2°C° 0.1 mm 2 mps 680 mmHg 60%
    11:00 -2°C° 0.1 mm 2 mps 681 mmHg 61%
    12:00 -2°C° 0.1 mm 2 mps 681 mmHg 62%
    13:00 -1°C° 0.1 mm 2 mps 681 mmHg 63%
    14:00 -1°C° 0.1 mm 2 mps 681 mmHg 64%
    15:00 0°C° 0.2 mm 1 mps 681 mmHg 66%
    16:00 0°C° 0.2 mm 1 mps 681 mmHg 68%
    17:00 -1°C° 0.2 mm 1 mps 681 mmHg 71%
    18:00 -1°C° 0.2 mm 1 mps 681 mmHg 72%
    19:00 -1°C° 0.2 mm 1 mps 682 mmHg 73%
    20:00 -1°C° 0.2 mm 1 mps 682 mmHg 75%
    21:00 -1°C° 0.2 mm 1 mps 682 mmHg 76%
    22:00 -1°C° 0.2 mm 1 mps 682 mmHg 77%
    23:00 -1°C° 0.2 mm 1 mps 682 mmHg 78%

    24 December, Monday

    Time Temperature Precipitation Wind Pressure Humidity
    00:00 -1°C° 0.2 mm 1 mps 682 mmHg 80%
    01:00 -1°C° 0.2 mm 1 mps 682 mmHg 81%
    02:00 -4°C° 0.2 mm 2 mps 682 mmHg 83%
    03:00 -2°C° 0.2 mm 1 mps 682 mmHg 84%
    04:00 -2°C° 0.2 mm 1 mps 682 mmHg 85%
    05:00 -2°C° 0.2 mm 1 mps 682 mmHg 87%
    06:00 -2°C° 0.2 mm 1 mps 682 mmHg 87%
    07:00 -2°C° 0.2 mm 1 mps 682 mmHg 88%
    08:00 -2°C° 0.2 mm 1 mps 683 mmHg 89%
    09:00 -3°C° 0.1 mm 2 mps 682 mmHg 87%
    10:00 -3°C° 0.1 mm 2 mps 682 mmHg 86%
    11:00 -2°C° 0.1 mm 2 mps 682 mmHg 84%
    12:00 -2°C° 0.1 mm 2 mps 682 mmHg 84%
    13:00 -2°C° 0.1 mm 2 mps 682 mmHg 83%
    14:00 0°C° 0.1 mm 1 mps 682 mmHg 83%
    15:00 -1°C° 0.1 mm 1 mps 682 mmHg 85%
    16:00 -1°C° 0.1 mm 1 mps 682 mmHg 86%
    17:00 -2°C° 0.1 mm 1 mps 682 mmHg 88%
    18:00 -2°C° 0.1 mm 1 mps 682 mmHg 88%
    19:00 -2°C° 0.1 mm 1 mps 682 mmHg 88%
    20:00 -4°C° 0.1 mm 2 mps 682 mmHg 88%
    21:00 -4°C° 0.1 mm 2 mps 682 mmHg 88%
    22:00 -4°C° 0.1 mm 2 mps 682 mmHg 89%
    23:00 -4°C° 0.1 mm 2 mps 682 mmHg 89%
    Show more